QPF
0.01 0.01 0.01 0.02 0.01 0.00 0.00 0.00 0.01 0.02 0.03 0.03 0.02 0.01 0.00 0.00 0.00 0.00 0.00 0.00 0.00 0.00 0.00 0.00 0.01 0.02 0.02 0.03 0.03 0.04 0.04 0.04 0.05 0.05 0.07 0.07 0.06 0.06 0.06 0.05 0.05 0.05 0.04 0.04
0.01 0.01 0.01 0.01 0.01 0.00 0.01 0.01 0.01 0.02 0.03 0.02 0.01 0.01 0.01 0.01 0.00 0.00 0.00 0.00 0.00 0.00 0.00 0.00 0.01 0.01 0.02 0.02 0.02 0.02 0.03 0.04 0.05 0.05 0.05 0.06 0.06 0.06 0.06 0.06 0.05 0.05 0.05 0.04
0.01 0.01 0.00 0.00 0.01 0.01 0.01 0.01 0.01 0.02 0.03 0.02 0.01 0.01 0.01 0.01 0.01 0.00 0.00 0.00 0.00 0.00 0.00 0.00 0.00 0.01 0.01 0.02 0.02 0.02 0.02 0.03 0.05 0.06 0.06 0.06 0.07 0.08 0.07 0.07 0.07 0.06 0.06 0.06
0.00 0.00 0.00 0.01 0.01 0.01 0.01 0.01 0.01 0.01 0.01 0.02 0.02 0.01 0.01 0.01 0.01 0.01 0.01 0.01 0.01 0.00 0.00 0.00 0.00 0.00 0.01 0.01 0.02 0.02 0.02 0.02 0.03 0.05 0.04 0.05 0.05 0.05 0.05 0.05 0.06 0.07 0.08 0.06
0.00 0.00 0.00 0.00 0.01 0.01 0.01 0.01 0.01 0.01 0.00 0.01 0.01 0.01 0.01 0.01 0.01 0.01 0.01 0.01 0.01 0.01 0.00 0.00 0.00 0.00 0.00 0.01 0.01 0.01 0.01 0.01 0.02 0.03 0.04 0.03 0.04 0.04 0.06 0.06 0.06 0.07 0.08 0.08
0.00 0.00 0.00 0.00 0.00 0.01 0.02 0.02 0.03 0.02 0.02 0.02 0.02 0.01 0.01 0.01 0.01 0.01 0.01 0.01 0.01 0.01 0.01 0.00 0.00 0.00 0.00 0.00 0.01 0.01 0.01 0.01 0.02 0.02 0.03 0.03 0.03 0.04 0.05 0.05 0.06 0.05 0.06 0.07
0.00 0.00 0.00 0.00 0.00 0.01 0.02 0.03 0.04 0.04 0.03 0.02 0.01 0.01 0.01 0.01 0.01 0.01 0.01 0.01 0.01 0.01 0.01 0.01 0.01 0.01 0.01 0.00 0.00 0.01 0.01 0.01 0.01 0.02 0.02 0.03 0.03 0.04 0.04 0.04 0.05 0.06 0.05 0.05
0.00 0.00 0.00 0.00 0.01 0.01 0.02 0.02 0.02 0.02 0.02 0.01 0.00 0.00 0.01 0.01 0.01 0.01 0.01 0.01 0.01 0.01 0.01 0.01 0.01 0.01 0.01 0.01 0.01 0.01 0.01 0.01 0.01 0.01 0.02 0.02 0.03 0.03 0.04 0.04 0.05 0.05 0.05 0.05
0.00 0.00 0.00 0.00 0.01 0.01 0.02 0.02 0.01 0.01 0.00 0.00 0.00 0.01 0.01 0.01 0.01 0.01 0.01 0.01 0.01 0.01 0.01 0.01 0.01 0.01 0.01 0.01 0.01 0.01 0.01 0.01 0.02 0.02 0.02 0.02 0.02 0.02 0.03 0.03 0.04 0.05 0.06 0.06
0.01 0.01 0.00 0.00 0.01 0.01 0.01 0.02 0.02 0.01 0.01 0.00 0.01 0.00 0.00 0.00 0.01 0.01 0.01 0.01 0.01 0.01 0.01 0.01 0.01 0.01 0.01 0.01 0.01 0.01 0.01 0.01 0.02 0.02 0.02 0.02 0.02 0.02 0.02 0.03 0.04 0.06 0.07 0.08
0.00 0.00 0.00 0.00 0.01 0.01 0.02 0.02 0.02 0.01 0.01 0.01 0.01 0.00 0.01 0.00 0.00 0.00 0.00 0.00 0.00 0.00 0.00 0.01 0.01 0.01 0.01 0.01 0.01 0.01 0.01 0.01 0.01 0.02 0.02 0.02 0.02 0.01 0.02 0.02 0.03 0.04 0.06 0.08
0.00 0.00 0.01 0.00 0.00 0.01 0.01 0.02 0.02 0.02 0.01 0.01 0.01 0.01 0.01 0.00 0.01 0.01 0.01 0.00 0.00 0.00 0.00 0.00 0.01 0.01 0.01 0.01 0.01 0.01 0.01 0.01 0.02 0.02 0.02 0.03 0.02 0.01 0.01 0.01 0.01 0.02 0.03 0.05
0.01 0.01 0.01 0.00 0.00 0.00 0.00 0.01 0.02 0.02 0.02 0.01 0.01 0.01 0.00 0.00 0.01 0.01 0.01 0.00 0.00 0.00 0.00 0.00 0.00 0.00 0.00 0.01 0.01 0.01 0.01 0.01 0.02 0.02 0.03 0.03 0.02 0.02 0.01 0.01 0.01 0.01 0.01 0.03
0.02 0.03 0.01 0.00 0.00 0.00 0.00 0.00 0.01 0.02 0.02 0.01 0.00 0.01 0.01 0.01 0.01 0.01 0.00 0.00 0.00 0.00 0.00 0.00 0.00 0.00 0.00 0.01 0.01 0.01 0.01 0.01 0.02 0.02 0.03 0.02 0.02 0.02 0.02 0.01 0.01 0.01 0.01 0.01
0.02 0.03 0.01 0.01 0.01 0.01 0.01 0.01 0.01 0.01 0.01 0.01 0.01 0.01 0.01 0.01 0.01 0.01 0.00 0.00 0.00 0.00 0.00 0.00 0.00 0.00 0.00 0.00 0.00 0.01 0.01 0.01 0.02 0.02 0.02 0.02 0.02 0.02 0.01 0.01 0.01 0.01 0.01 0.01
0.01 0.01 0.01 0.01 0.01 0.01 0.01 0.01 0.01 0.01 0.01 0.01 0.01 0.01 0.01 0.01 0.00 0.00 0.00 0.00 0.00 0.00 0.00 0.00 0.00 0.00 0.00 0.00 0.00 0.01 0.01 0.01 0.02 0.02 0.02 0.02 0.02 0.01 0.01 0.01 0.01 0.01 0.01 0.01
0.01 0.01 0.01 0.01 0.00 0.01 0.01 0.00 0.00 0.00 0.01 0.01 0.01 0.01 0.01 0.01 0.01 0.01 0.00 0.00 0.00 0.00 0.00 0.00 0.00 0.00 0.01 0.01 0.01 0.01 0.01 0.01 0.01 0.02 0.02 0.02 0.01 0.01 0.01 0.01 0.01 0.01 0.01 0.01
0.01 0.02 0.03 0.02 0.01 0.01 0.01 0.01 0.00 0.00 0.01 0.01 0.01 0.01 0.01 0.01 0.01 0.01 0.01 0.00 0.00 0.00 0.00 0.00 0.01 0.01 0.00 0.01 0.01 0.01 0.01 0.01 0.01 0.01 0.01 0.01 0.01 0.01 0.01 0.01 0.01 0.01 0.01 0.01
0.01 0.02 0.04 0.03 0.02 0.01 0.01 0.00 0.01 0.01 0.01 0.01 0.01 0.01 0.01 0.01 0.01 0.01 0.00 0.00 0.00 0.01 0.01 0.01 0.01 0.01 0.01 0.01 0.01 0.01 0.01 0.01 0.01 0.01 0.01 0.01 0.01 0.01 0.01 0.01 0.01 0.01 0.01 0.01
0.01 0.02 0.04 0.03 0.02 0.01 0.01 0.00 0.01 0.01 0.01 0.01 0.01 0.01 0.01 0.01 0.01 0.01 0.00 0.01 0.01 0.01 0.01 0.01 0.01 0.01 0.01 0.01 0.01 0.01 0.01 0.01 0.01 0.01 0.01 0.01 0.01 0.01 0.01 0.01 0.01 0.01 0.01 0.01
0.02 0.03 0.04 0.03 0.02 0.01 0.00 0.00 0.00 0.01 0.01 0.01 0.01 0.01 0.01 0.01 0.01 0.01 0.01 0.01 0.01 0.01 0.01 0.01 0.01 0.01 0.01 0.01 0.01 0.01 0.01 0.01 0.01 0.01 0.01 0.01 0.01 0.01 0.01 0.01 0.01 0.01 0.01 0.01
0.01 0.01 0.01 0.02 0.02 0.01 0.00 0.00 0.00 0.01 0.01 0.01 0.01 0.01 0.01 0.01 0.01 0.01 0.01 0.01 0.01 0.01 0.01 0.01 0.01 0.01 0.01 0.01 0.01 0.01 0.01 0.01 0.01 0.01 0.01 0.01 0.01 0.01 0.01 0.01 0.01 0.01 0.01 0.01
0.01 0.01 0.01 0.01 0.01 0.01 0.01 0.01 0.01 0.01 0.01 0.01 0.01 0.00 0.00 0.01 0.01 0.01 0.01 0.01 0.01 0.01 0.01 0.01 0.01 0.01 0.01 0.01 0.01 0.01 0.01 0.01 0.01 0.01 0.01 0.01 0.01 0.01 0.01 0.01 0.01 0.01 0.01 0.01
0.01 0.01 0.01 0.01 0.01 0.01 0.01 0.01 0.01 0.01 0.01 0.01 0.01 0.01 0.01 0.01 0.01 0.01 0.01 0.01 0.01 0.01 0.01 0.01 0.01 0.01 0.01 0.01 0.01 0.01 0.01 0.01 0.01 0.01 0.01 0.01 0.01 0.01 0.01 0.01 0.01 0.01 0.01 0.01
0.01 0.01 0.01 0.01 0.01 0.01 0.01 0.01 0.01 0.01 0.01 0.01 0.00 0.00 0.01 0.01 0.01 0.01 0.01 0.01 0.01 0.01 0.01 0.01 0.01 0.01 0.01 0.00 0.00 0.00 0.01 0.01 0.01 0.01 0.01 0.01 0.01 0.01 0.01 0.01 0.01 0.01 0.01 0.01
0.01 0.01 0.02 0.01 0.01 0.01 0.01 0.01 0.01 0.01 0.01 0.01 0.01 0.01 0.01 0.01 0.01 0.01 0.01 0.01 0.01 0.01 0.01 0.01 0.01 0.01 0.01 0.00 0.00 0.00 0.00 0.01 0.01 0.01 0.01 0.01 0.01 0.01 0.01 0.01 0.01 0.00 0.01 0.01
MSLP
1019.84 1020.15 1020.49 1020.84 1021.14 1021.38 1021.52 1021.56 1021.53 1021.46 1021.40 1021.39 1021.49 1021.73 1022.13 1022.70 1023.39 1024.18 1024.99 1025.77 1026.46 1027.00 1027.37 1027.55 1027.55 1027.39 1027.09 1026.72 1026.31 1025.90 1025.54 1025.23 1025.01 1024.86 1024.78 1024.74 1024.73 1024.72 1024.70 1024.64 1024.56 1024.46 1024.35 1024.24
1020.71 1021.04 1021.40 1021.76 1022.09 1022.35 1022.51 1022.56 1022.52 1022.41 1022.28 1022.18 1022.17 1022.29 1022.56 1023.02 1023.64 1024.38 1025.20 1026.01 1026.77 1027.40 1027.86 1028.12 1028.18 1028.06 1027.78 1027.41 1026.99 1026.56 1026.18 1025.88 1025.66 1025.52 1025.45 1025.41 1025.39 1025.36 1025.29 1025.20 1025.06 1024.91 1024.76 1024.63
1021.60 1021.93 1022.31 1022.68 1023.03 1023.31 1023.50 1023.58 1023.54 1023.42 1023.24 1023.06 1022.94 1022.93 1023.07 1023.40 1023.91 1024.57 1025.35 1026.17 1026.96 1027.66 1028.20 1028.54 1028.67 1028.60 1028.36 1028.02 1027.61 1027.20 1026.83 1026.54 1026.34 1026.21 1026.15 1026.12 1026.09 1026.03 1025.93 1025.78 1025.60 1025.40 1025.21 1025.04
1022.43 1022.76 1023.13 1023.51 1023.87 1024.18 1024.41 1024.53 1024.52 1024.40 1024.20 1023.96 1023.74 1023.60 1023.60 1023.78 1024.16 1024.71 1025.41 1026.20 1027.00 1027.73 1028.33 1028.75 1028.95 1028.96 1028.79 1028.50 1028.14 1027.76 1027.43 1027.16 1026.98 1026.88 1026.82 1026.79 1026.76 1026.68 1026.55 1026.37 1026.16 1025.92 1025.69 1025.48
1023.15 1023.47 1023.82 1024.19 1024.57 1024.91 1025.18 1025.36 1025.40 1025.31 1025.11 1024.83 1024.54 1024.28 1024.14 1024.17 1024.40 1024.82 1025.42 1026.14 1026.91 1027.65 1028.28 1028.76 1029.05 1029.14 1029.05 1028.84 1028.55 1028.23 1027.95 1027.72 1027.56 1027.48 1027.43 1027.40 1027.36 1027.27 1027.13 1026.93 1026.69 1026.42 1026.16 1025.92
1023.72 1024.00 1024.33 1024.70 1025.08 1025.46 1025.79 1026.03 1026.14 1026.10 1025.93 1025.65 1025.31 1024.97 1024.71 1024.60 1024.67 1024.95 1025.42 1026.04 1026.75 1027.46 1028.12 1028.64 1029.00 1029.17 1029.18 1029.06 1028.85 1028.61 1028.38 1028.20 1028.07 1027.99 1027.95 1027.92 1027.87 1027.77 1027.62 1027.42 1027.17 1026.89 1026.61 1026.34
1024.14 1024.39 1024.69 1025.04 1025.44 1025.85 1026.24 1026.55 1026.74 1026.78 1026.67 1026.41 1026.06 1025.68 1025.33 1025.10 1025.03 1025.17 1025.50 1026.00 1026.62 1027.28 1027.91 1028.46 1028.86 1029.11 1029.21 1029.18 1029.07 1028.90 1028.74 1028.60 1028.50 1028.43 1028.39 1028.35 1028.28 1028.18 1028.02 1027.82 1027.57 1027.29 1027.00 1026.71
1024.45 1024.66 1024.93 1025.27 1025.68 1026.12 1026.57 1026.96 1027.24 1027.37 1027.33 1027.13 1026.81 1026.42 1026.03 1025.71 1025.54 1025.54 1025.74 1026.10 1026.60 1027.18 1027.76 1028.29 1028.72 1029.02 1029.20 1029.25 1029.23 1029.14 1029.04 1028.94 1028.86 1028.80 1028.74 1028.68 1028.60 1028.48 1028.32 1028.11 1027.87 1027.59 1027.30 1027.00
1024.71 1024.90 1025.14 1025.48 1025.89 1026.36 1026.85 1027.30 1027.65 1027.87 1027.92 1027.80 1027.54 1027.18 1026.79 1026.44 1026.19 1026.09 1026.16 1026.39 1026.76 1027.22 1027.72 1028.20 1028.62 1028.94 1029.17 1029.29 1029.34 1029.33 1029.28 1029.22 1029.16 1029.10 1029.03 1028.94 1028.84 1028.69 1028.52 1028.31 1028.06 1027.79 1027.50 1027.20
1024.99 1025.17 1025.41 1025.74 1026.15 1026.63 1027.13 1027.61 1028.01 1028.30 1028.42 1028.39 1028.21 1027.92 1027.57 1027.23 1026.95 1026.78 1026.74 1026.85 1027.09 1027.42 1027.80 1028.20 1028.57 1028.89 1029.13 1029.31 1029.41 1029.46 1029.47 1029.44 1029.40 1029.33 1029.24 1029.13 1028.99 1028.82 1028.62 1028.39 1028.15 1027.88 1027.59 1027.28
1025.35 1025.55 1025.81 1026.13 1026.53 1026.98 1027.45 1027.92 1028.32 1028.62 1028.80 1028.84 1028.74 1028.54 1028.27 1027.97 1027.71 1027.51 1027.41 1027.42 1027.53 1027.73 1027.99 1028.28 1028.57 1028.85 1029.09 1029.28 1029.42 1029.52 1029.57 1029.58 1029.55 1029.48 1029.37 1029.23 1029.05 1028.85 1028.63 1028.38 1028.12 1027.85 1027.57 1027.26
1025.84 1026.10 1026.37 1026.69 1027.04 1027.42 1027.82 1028.20 1028.54 1028.82 1029.00 1029.07 1029.05 1028.94 1028.76 1028.56 1028.35 1028.17 1028.05 1027.99 1028.01 1028.09 1028.22 1028.40 1028.60 1028.81 1029.01 1029.20 1029.36 1029.49 1029.57 1029.61 1029.60 1029.53 1029.41 1029.24 1029.04 1028.80 1028.55 1028.29 1028.02 1027.74 1027.45 1027.15
1026.48 1026.80 1027.10 1027.39 1027.67 1027.93 1028.19 1028.43 1028.65 1028.83 1028.96 1029.04 1029.07 1029.05 1028.99 1028.89 1028.78 1028.67 1028.57 1028.49 1028.45 1028.44 1028.46 1028.53 1028.63 1028.76 1028.91 1029.08 1029.24 1029.38 1029.48 1029.54 1029.54 1029.47 1029.35 1029.16 1028.94 1028.68 1028.40 1028.12 1027.84 1027.56 1027.27 1026.96
1027.24 1027.62 1027.92 1028.16 1028.33 1028.44 1028.51 1028.56 1028.60 1028.64 1028.68 1028.74 1028.80 1028.86 1028.92 1028.95 1028.97 1028.96 1028.93 1028.88 1028.81 1028.74 1028.69 1028.66 1028.67 1028.72 1028.80 1028.92 1029.06 1029.20 1029.31 1029.37 1029.38 1029.32 1029.19 1028.99 1028.75 1028.48 1028.19 1027.89 1027.60 1027.32 1027.03 1026.73
1028.05 1028.46 1028.74 1028.90 1028.92 1028.85 1028.71 1028.54 1028.38 1028.26 1028.19 1028.20 1028.28 1028.42 1028.60 1028.78 1028.95 1029.08 1029.15 1029.16 1029.11 1029.02 1028.92 1028.81 1028.74 1028.71 1028.72 1028.79 1028.88 1028.99 1029.09 1029.15 1029.15 1029.08 1028.95 1028.75 1028.49 1028.21 1027.91 1027.61 1027.32 1027.04 1026.75 1026.46
1028.79 1029.19 1029.42 1029.46 1029.34 1029.08 1028.74 1028.36 1028.01 1027.73 1027.57 1027.54 1027.64 1027.86 1028.16 1028.49 1028.82 1029.09 1029.29 1029.39 1029.39 1029.31 1029.18 1029.03 1028.88 1028.77 1028.71 1028.71 1028.75 1028.81 1028.87 1028.90 1028.88 1028.80 1028.65 1028.44 1028.18 1027.89 1027.59 1027.29 1027.00 1026.72 1026.44 1026.15
1029.30 1029.66 1029.80 1029.74 1029.48 1029.06 1028.55 1028.02 1027.53 1027.15 1026.93 1026.89 1027.04 1027.34 1027.76 1028.24 1028.72 1029.14 1029.45 1029.65 1029.71 1029.66 1029.52 1029.33 1029.13 1028.95 1028.81 1028.73 1028.70 1028.69 1028.69 1028.67 1028.61 1028.49 1028.32 1028.09 1027.82 1027.52 1027.22 1026.92 1026.63 1026.35 1026.08 1025.79
1029.44 1029.71 1029.76 1029.60 1029.24 1028.74 1028.15 1027.55 1027.01 1026.62 1026.41 1026.41 1026.63 1027.03 1027.57 1028.17 1028.78 1029.32 1029.74 1030.01 1030.13 1030.10 1029.96 1029.74 1029.49 1029.25 1029.04 1028.87 1028.75 1028.66 1028.59 1028.49 1028.37 1028.20 1027.99 1027.72 1027.43 1027.11 1026.80 1026.49 1026.20 1025.93 1025.65 1025.37
1029.09 1029.25 1029.23 1029.02 1028.64 1028.14 1027.57 1027.02 1026.55 1026.23 1026.11 1026.22 1026.54 1027.04 1027.68 1028.38 1029.07 1029.69 1030.17 1030.49 1030.64 1030.62 1030.47 1030.22 1029.93 1029.63 1029.35 1029.10 1028.89 1028.72 1028.55 1028.37 1028.17 1027.93 1027.65 1027.34 1027.01 1026.67 1026.33 1026.02 1025.72 1025.43 1025.16 1024.87
1028.20 1028.29 1028.23 1028.04 1027.72 1027.32 1026.90 1026.50 1026.21 1026.06 1026.10 1026.35 1026.80 1027.40 1028.12 1028.87 1029.60 1030.24 1030.73 1031.05 1031.19 1031.16 1030.98 1030.71 1030.38 1030.02 1029.68 1029.36 1029.07 1028.81 1028.55 1028.28 1027.99 1027.67 1027.32 1026.95 1026.56 1026.18 1025.82 1025.47 1025.15 1024.85 1024.57 1024.27
1026.85 1026.90 1026.87 1026.76 1026.60 1026.41 1026.22 1026.08 1026.04 1026.14 1026.39 1026.81 1027.38 1028.06 1028.82 1029.58 1030.29 1030.88 1031.33 1031.60 1031.70 1031.63 1031.42 1031.11 1030.75 1030.35 1029.96 1029.59 1029.23 1028.88 1028.54 1028.18 1027.80 1027.40 1026.97 1026.52 1026.08 1025.64 1025.24 1024.86 1024.51 1024.19 1023.88 1023.58
1025.20 1025.27 1025.33 1025.40 1025.46 1025.54 1025.66 1025.83 1026.09 1026.46 1026.93 1027.52 1028.19 1028.93 1029.68 1030.39 1031.02 1031.53 1031.88 1032.06 1032.08 1031.95 1031.70 1031.36 1030.96 1030.54 1030.12 1029.70 1029.29 1028.88 1028.46 1028.02 1027.56 1027.07 1026.56 1026.04 1025.53 1025.04 1024.58 1024.16 1023.78 1023.43 1023.11 1022.79
1023.50 1023.66 1023.88 1024.16 1024.49 1024.87 1025.31 1025.81 1026.37 1026.99 1027.66 1028.38 1029.12 1029.86 1030.55 1031.17 1031.68 1032.06 1032.28 1032.35 1032.28 1032.08 1031.78 1031.41 1031.00 1030.56 1030.12 1029.67 1029.22 1028.76 1028.27 1027.76 1027.22 1026.65 1026.06 1025.47 1024.89 1024.34 1023.83 1023.37 1022.95 1022.58 1022.24 1021.92
1022.06 1022.35 1022.76 1023.27 1023.87 1024.55 1025.28 1026.06 1026.86 1027.68 1028.49 1029.29 1030.04 1030.74 1031.34 1031.84 1032.20 1032.42 1032.51 1032.46 1032.29 1032.02 1031.68 1031.28 1030.85 1030.40 1029.95 1029.48 1029.00 1028.49 1027.95 1027.36 1026.75 1026.10 1025.44 1024.78 1024.14 1023.53 1022.98 1022.48 1022.04 1021.65 1021.30 1020.99
1021.14 1021.60 1022.20 1022.93 1023.76 1024.66 1025.61 1026.58 1027.55 1028.48 1029.36 1030.17 1030.88 1031.49 1031.98 1032.33 1032.54 1032.62 1032.58 1032.42 1032.16 1031.83 1031.45 1031.03 1030.59 1030.13 1029.65 1029.16 1028.64 1028.08 1027.47 1026.82 1026.13 1025.41 1024.68 1023.96 1023.26 1022.61 1022.01 1021.49 1021.03 1020.64 1020.30 1019.99
1020.95 1021.57 1022.34 1023.22 1024.20 1025.24 1026.31 1027.37 1028.39 1029.34 1030.21 1030.96 1031.60 1032.10 1032.46 1032.67 1032.76 1032.71 1032.56 1032.31 1031.99 1031.61 1031.20 1030.75 1030.28 1029.80 1029.29 1028.75 1028.17 1027.55 1026.87 1026.14 1025.37 1024.58 1023.78 1022.99 1022.25 1021.56 1020.94 1020.40 1019.94 1019.56 1019.23 1018.95
Thickness
5553 5544 5540 5544 5547 5551 5548 5545 5540 5540 5539 5534 5529 5522 5519 5517 5513 5509 5504 5500 5498 5496 5496 5494 5493 5493 5493 5494 5495 5496 5498 5500 5501 5503 5504 5505 5506 5508 5509 5509 5511 5512 5513 5515
5536 5531 5538 5540 5540 5539 5538 5530 5525 5525 5526 5522 5515 5508 5508 5505 5501 5497 5493 5488 5485 5482 5481 5480 5479 5479 5479 5479 5480 5482 5484 5486 5488 5489 5491 5492 5493 5495 5496 5497 5498 5499 5501 5502
5530 5527 5533 5531 5525 5527 5522 5518 5514 5511 5509 5508 5502 5496 5496 5493 5489 5485 5481 5477 5473 5471 5468 5466 5465 5464 5464 5465 5466 5468 5470 5472 5474 5476 5477 5479 5480 5481 5482 5483 5485 5486 5487 5488
5515 5519 5521 5518 5513 5513 5513 5509 5506 5501 5491 5484 5488 5477 5483 5477 5474 5471 5465 5461 5459 5457 5454 5452 5451 5450 5449 5450 5451 5453 5456 5458 5460 5462 5463 5464 5465 5466 5468 5470 5471 5472 5474 5475
5505 5507 5507 5505 5503 5501 5498 5497 5493 5488 5476 5465 5466 5460 5467 5461 5462 5460 5453 5447 5444 5441 5440 5438 5437 5435 5435 5435 5436 5438 5441 5443 5446 5448 5450 5450 5451 5452 5454 5456 5458 5459 5461 5462
5494 5497 5495 5494 5493 5491 5485 5480 5474 5461 5453 5454 5454 5447 5453 5447 5452 5451 5442 5435 5429 5426 5424 5423 5422 5421 5420 5421 5422 5424 5426 5429 5431 5433 5435 5436 5437 5439 5441 5443 5445 5446 5448 5449
5486 5485 5483 5482 5481 5477 5471 5464 5453 5446 5436 5445 5443 5435 5440 5436 5434 5435 5430 5421 5415 5412 5409 5408 5407 5406 5406 5406 5407 5409 5412 5414 5416 5418 5420 5421 5423 5425 5427 5430 5431 5433 5434 5436
5476 5475 5470 5468 5468 5464 5457 5456 5447 5437 5427 5429 5427 5425 5429 5421 5418 5416 5412 5407 5403 5398 5395 5394 5392 5391 5391 5391 5392 5394 5396 5398 5400 5402 5404 5406 5408 5411 5413 5415 5417 5419 5421 5423
5462 5464 5457 5456 5453 5455 5448 5437 5436 5417 5402 5399 5410 5408 5414 5413 5407 5402 5397 5393 5388 5385 5382 5380 5378 5377 5377 5376 5377 5379 5381 5382 5384 5387 5389 5391 5393 5395 5397 5400 5402 5404 5407 5409
5451 5446 5444 5440 5442 5436 5435 5427 5415 5408 5402 5398 5403 5398 5406 5401 5395 5390 5384 5379 5375 5372 5368 5366 5364 5364 5363 5363 5363 5364 5365 5367 5368 5371 5373 5375 5377 5380 5382 5385 5387 5389 5392 5395
5438 5432 5428 5425 5420 5420 5417 5415 5408 5394 5389 5385 5382 5397 5397 5393 5387 5379 5373 5368 5363 5358 5355 5352 5350 5350 5350 5350 5349 5350 5351 5352 5354 5355 5358 5360 5362 5365 5367 5369 5371 5374 5377 5380
5425 5416 5411 5410 5406 5404 5403 5399 5393 5391 5380 5366 5365 5381 5384 5377 5372 5368 5362 5357 5352 5347 5344 5340 5338 5337 5336 5336 5336 5336 5336 5338 5339 5341 5343 5344 5347 5349 5352 5354 5356 5359 5361 5365
5414 5405 5404 5408 5398 5389 5386 5381 5377 5372 5365 5353 5357 5374 5369 5362 5359 5355 5349 5343 5339 5336 5332 5329 5327 5325 5324 5323 5323 5323 5323 5324 5325 5327 5328 5330 5332 5335 5337 5339 5341 5343 5346 5349
5408 5393 5395 5402 5397 5381 5372 5370 5363 5360 5355 5349 5353 5364 5360 5352 5346 5340 5334 5328 5325 5323 5321 5318 5315 5313 5312 5311 5310 5310 5311 5311 5313 5314 5315 5317 5318 5320 5321 5323 5325 5328 5331 5333
5397 5385 5377 5376 5375 5369 5367 5363 5353 5349 5351 5350 5355 5345 5352 5343 5335 5328 5321 5316 5315 5314 5311 5308 5305 5302 5300 5299 5299 5298 5298 5299 5300 5301 5303 5304 5305 5305 5307 5309 5311 5313 5315 5318
5382 5374 5368 5366 5367 5359 5358 5356 5348 5342 5338 5336 5337 5338 5339 5328 5320 5314 5309 5306 5304 5302 5300 5297 5294 5291 5290 5289 5288 5287 5286 5287 5288 5289 5290 5291 5292 5292 5294 5295 5297 5299 5301 5303
5367 5361 5359 5359 5351 5354 5354 5352 5342 5334 5329 5328 5331 5334 5323 5318 5313 5306 5301 5296 5293 5290 5287 5284 5282 5280 5278 5276 5276 5274 5274 5275 5275 5277 5278 5279 5280 5280 5281 5282 5284 5285 5287 5290
5356 5352 5345 5342 5340 5347 5362 5340 5336 5331 5324 5317 5319 5316 5312 5308 5301 5294 5289 5285 5283 5280 5277 5274 5270 5268 5266 5265 5264 5263 5263 5263 5263 5264 5266 5267 5268 5269 5270 5271 5272 5273 5275 5276
5351 5347 5336 5330 5327 5336 5346 5333 5321 5322 5320 5312 5307 5306 5299 5293 5289 5287 5283 5277 5273 5270 5266 5262 5260 5257 5256 5254 5253 5252 5252 5252 5252 5253 5254 5255 5256 5257 5259 5260 5261 5262 5263 5265
5338 5334 5328 5319 5325 5332 5344 5323 5312 5313 5315 5310 5299 5296 5289 5285 5284 5283 5275 5268 5263 5259 5255 5252 5250 5247 5246 5244 5242 5241 5241 5241 5241 5243 5244 5245 5246 5247 5248 5248 5250 5251 5252 5254
5324 5320 5318 5315 5314 5323 5317 5306 5306 5312 5319 5303 5292 5287 5279 5273 5274 5270 5263 5258 5253 5249 5246 5243 5240 5237 5236 5234 5232 5231 5231 5231 5232 5233 5234 5235 5236 5237 5238 5238 5239 5240 5242 5243
5317 5309 5304 5304 5305 5319 5303 5297 5301 5304 5295 5288 5282 5277 5270 5265 5261 5257 5253 5248 5244 5240 5237 5233 5230 5228 5226 5224 5222 5222 5222 5223 5223 5223 5224 5225 5226 5226 5228 5228 5229 5230 5230 5231
5311 5311 5307 5305 5314 5306 5294 5294 5291 5287 5283 5278 5273 5268 5262 5257 5253 5249 5244 5240 5236 5232 5229 5225 5222 5220 5218 5216 5214 5213 5214 5214 5214 5213 5214 5215 5216 5217 5217 5217 5218 5219 5219 5219
5302 5297 5295 5291 5296 5292 5286 5283 5280 5276 5273 5270 5265 5260 5255 5249 5245 5240 5237 5233 5229 5226 5222 5219 5215 5212 5211 5209 5208 5207 5207 5206 5205 5205 5205 5206 5206 5207 5208 5208 5208 5208 5208 5208
5299 5288 5287 5287 5287 5282 5282 5279 5275 5270 5266 5261 5257 5252 5248 5243 5238 5233 5229 5226 5223 5221 5216 5213 5209 5207 5205 5203 5202 5201 5200 5199 5197 5197 5197 5197 5198 5197 5198 5198 5198 5198 5199 5198
5290 5286 5287 5296 5289 5280 5280 5276 5270 5264 5260 5255 5250 5246 5241 5236 5231 5227 5223 5220 5216 5213 5210 5207 5204 5202 5200 5198 5196 5195 5194 5192 5190 5190 5190 5189 5189 5188 5188 5188 5189 5190 5190 5191